Ruiselede, Belgium
Current Conditions -  °F | °C
As of 11:50 PM on Wednesday 17 Dec 2014 (Local Time) from EBOS Reporting Station
Broken Clouds Broken Clouds  
Wind Chill: 44°   Ceiling: 2500
Heat Index: 48°   Visibility: 6mi
Dew Point: 48°   Wind: 10mph
Humidity: 100%   Direction: 220°SW
Pressure: 29.8"   Gusts: NA
Location:  51.04°N, 3.39°E
Report Text: EBOS 172250Z 22009KT 9999 SCT012 BKN025 09/09 Q1009 TEMPO BKN012
Loading
Personal Weather Stations






























Interactive Weather Map New forecast layout! Learn more

10-Day Weather Forecast

Advertisements
Track Severe Weather on mobile